This is the latest recevied weather packets stored in our database for station/object IK0TIX. If no packets are shown the sender has not sent any weather packets the latest 10 day(s).
| Time | Temp. | Humidity | Pressure | Rain* | Wind** | Luminosity | Snow |
|---|---|---|---|---|---|---|---|
| 1777302871 | 23.33° C | 49% | 1017.7 hPa | 0 mm | - | - | - |
| 1777302585 | 23.33° C | 48% | 1017.7 hPa | 0 mm | - | - | - |
| 1777300252 | 23.89° C | 49% | 1017.8 hPa | 0 mm | - | - | - |
| 1777299283 | 24.44° C | 49% | 1018 hPa | 0 mm | - | - | - |
| 1777298972 | 24.44° C | 49% | 1018 hPa | 0 mm | - | - | - |
| 1777297774 | 24.44° C | 49% | 1018.1 hPa | 0 mm | - | - | - |
| 1777297192 | 24.44° C | 50% | 1018.1 hPa | 0 mm | - | - | - |
| 1777296577 | 25° C | 47% | 1018.2 hPa | 0 mm | - | - | - |
| 1777296005 | 25° C | 48% | 1018.2 hPa | 0 mm | - | - | - |
| 1777294809 | 25° C | 46% | 1018.5 hPa | 0 mm | - | - | - |
| 1777293573 | 25° C | 42% | 1018.6 hPa | 0 mm | - | - | - |
| 1777291481 | 24.44° C | 44% | 1019 hPa | 0 mm | - | - | - |
| 1777290603 | 24.44° C | 45% | 1019 hPa | 0 mm | - | - | - |
| 1777290299 | 24.44° C | 46% | 1019 hPa | 0 mm | - | - | - |
| 1777290015 | 25° C | 47% | 1019.1 hPa | 0 mm | - | - | - |
| 1777289072 | 25.56° C | 46% | 1019 hPa | 0 mm | - | - | - |
| 1777288480 | 25° C | 47% | 1019 hPa | 0 mm | - | - | - |
| 1777287596 | 25° C | 48% | 1019.2 hPa | 0 mm | - | - | - |
| 1777287270 | 24.44° C | 47% | 1019.3 hPa | 0 mm | - | - | - |
| 1777287006 | 24.44° C | 48% | 1019.3 hPa | 0 mm | - | - | - |
| 1777286071 | 25° C | 49% | 1019.5 hPa | 0 mm | - | - | - |
| 1777284583 | 23.89° C | 49% | 1019.6 hPa | 0 mm | - | - | - |
| 1777283991 | 23.89° C | 49% | 1019.7 hPa | 0 mm | - | - | - |
| 1777283085 | 22.78° C | 49% | 1019.9 hPa | 0 mm | - | - | - |
| 1777282784 | 22.78° C | 49% | 1019.9 hPa | 0 mm | - | - | - |
* Rain latest hour (hover to see other rain measurements)
** Current wind speed in m/s (hover to see current wind gust speed)